Location: Caltech
(34.1382°N, 118.1253°W)
Time: 22:07:51
(UTC-07:00)

Oscar 10/S400 - Visible Passes

Search period start: 27 August 2016 00:00
Search period end: 06 September 2016 00:00
Orbit: 4047 x 35400 km, 26.8° (Epoch: 26 August)

Date Brightness Start Highest point End Pass type
(mag) Time Alt. Az. Time Alt. Az. Time Alt. Az.
27 Aug ? 05:38:58 10° SSW 14:48:42 79° SSW 16:09:20 10° ESE visible
28 Aug ? 04:55:53 10° S 13:21:20 81° S 15:24:11 10° ESE visible
29 Aug ? 04:14:18 10° S 12:15:38 76° SE 14:38:25 10° ESE visible
30 Aug ? 03:35:36 10° SSE 11:26:31 68° ESE 13:51:53 10° E visible
31 Aug ? 03:06:32 10° SE 10:40:51 59° E 13:04:22 10° E visible
01 Sep ? 03:16:42 10° ESE 09:56:36 50° E 12:15:30 10° E visible
02 Sep ? 03:44:51 10° E 09:13:14 41° E 11:24:44 10° E visible
03 Sep ? 04:10:39 10° E 08:30:33 32° E 10:31:03 10° ENE visible
04 Sep ? 04:38:19 10° E 07:48:26 24° E 09:32:18 10° ENE visible
05 Sep ? 05:15:47 10° ENE 07:06:48 16° ENE 08:21:57 10° ENE visible
